Flight Track Log - Related Links

Times and Time Zones

All times are in EST time to prevent confusion due to time zone crossing. See the EJA929 flight status page for this flight to view local times or setup timezone preferences in your user account.

Time Position Orientation Groundspeed Altitude Reporting Facility
EST Latitude Longitude Course Direction KTS MPH feet Rate Location/Type
Thu 12:25:46 PM 42.3500 -71.0167 100° East 165 190 600  Level KA90
Thu 12:28:04 PM 42.3278 -70.8397 100° East 289 333 8,500 3,317 Climbing Boston Center
Thu 12:29:05 PM 42.2986 -70.7253 109° East 339 390 11,600 3,000 Climbing Boston Center
Thu 12:30:06 PM 42.2156 -70.7456 190° South 333 383 14,600 2,852 Climbing Boston Center
Thu 12:31:07 PM 42.2008 -70.8581 260° West 301 346 17,400 2,164 Climbing Boston Center
Thu 12:32:08 PM 42.1867 -70.9725 261° West 311 358 19,000 1,672 Climbing Boston Center
Thu 12:33:09 PM 42.1722 -71.0875 260° West 318 366 20,800 2,016 Climbing Boston Center
Thu 12:34:10 PM 42.1542 -71.2164 259° West 341 392 23,100 2,311 Climbing Boston Center
Thu 12:35:11 PM 42.1381 -71.3450 260° West 347 399 25,500 2,164 Climbing Boston Center
Thu 12:36:12 PM 42.1183 -71.4744 258° West 352 405 27,500 1,820 Climbing Boston Center
Thu 12:37:13 PM 42.0758 -71.6003 246° West 369 425 29,200 1,721 Climbing Boston Center
Thu 12:38:14 PM 42.0264 -71.7289 243° Southwest 383 441 31,000 2,164 Climbing Boston Center
Thu 12:39:15 PM 41.9650 -71.8842 242° Southwest 389 448 33,600 2,361 Climbing Boston Center
Thu 12:40:16 PM 41.9147 -72.0122 242° Southwest 389 448 35,800 2,066 Climbing Boston Center
Thu 12:41:17 PM 41.8650 -72.1403 242° Southwest 387 445 37,800 1,623 Climbing Boston Center
Thu 12:42:18 PM 41.8150 -72.2675 242° Southwest 385 443 39,100 1,073 Climbing Boston Center
Thu 12:43:20 PM 41.7608 -72.3992 241° Southwest 397 457 40,000 439 Climbing Boston Center
Thu 12:44:21 PM 41.7075 -72.5322 242° Southwest 401 461 40,000  Level Boston Center
Thu 12:45:22 PM 41.6508 -72.6739 242° Southwest 422 486 40,000  Level Boston Center
Thu 12:46:23 PM 41.5911 -72.8203 241° Southwest 444 511 40,000  Level Boston Center
Thu 12:47:24 PM 41.5342 -72.9614 242° Southwest 450 518 40,000  Level Boston Center
Thu 12:48:25 PM 41.4628 -73.1369 242° Southwest 452 520 40,000  Level Boston Center
Thu 12:49:26 PM 41.4036 -73.2833 242° Southwest 453 521 40,000  Level Boston Center
Thu 12:50:27 PM 41.3425 -73.4300 241° Southwest 455 524 40,000  Level Boston Center
Thu 12:51:28 PM 41.2814 -73.5756 241° Southwest 454 522 40,000  Level Boston Center
Thu 12:52:29 PM 41.2031 -73.7125 233° Southwest 465 535 40,000  Level Boston Center
Thu 12:53:31 PM 41.1228 -73.8458 231° Southwest 466 536 40,000  Level Boston Center
Thu 12:54:32 PM 41.0431 -73.9817 232° Southwest 467 537 40,000  Level Boston Center
Thu 12:55:33 PM 40.9631 -74.1158 232° Southwest 467 537 40,000  Level Boston Center
Thu 12:56:34 PM 40.8811 -74.2489 231° Southwest 467 537 40,000  Level Boston Center
Thu 12:57:35 PM 40.7978 -74.3867 231° Southwest 469 540 40,000  Level Boston Center
Thu 12:58:36 PM 40.7172 -74.5200 231° Southwest 466 536 40,000  Level Boston Center
Thu 12:59:37 PM 40.6214 -74.6789 232° Southwest 464 534 40,000  Level Boston Center
Thu 01:00:38 PM 40.5381 -74.8075 230° Southwest 463 533 40,000  Level Boston Center
Thu 01:01:40 PM 40.4492 -74.9317 227° Southwest 468 539 40,000  Level Boston Center
Thu 01:02:41 PM 40.3611 -75.0550 227° Southwest 467 537 40,000  Level Boston Center
Thu 01:03:42 PM 40.2750 -75.1781 227° Southwest 464 534 40,000 -46 Level Boston Center
Thu 01:04:52 PM 40.1669 -75.3342 228° Southwest 474 545 39,900  Descending New York Center
Thu 01:05:52 PM 40.0786 -75.4586 227° Southwest 474 545 40,000 50 Climbing New York Center
Thu 01:06:52 PM 39.9972 -75.5669 226° Southwest 480 552 40,000  Level New York Center
Thu 01:07:52 PM 39.9108 -75.6908 228° Southwest 480 552 40,000  Level New York Center
Thu 01:08:52 PM 39.8306 -75.8150 230° Southwest 470 541 40,000  Level New York Center
Thu 01:09:52 PM 39.7519 -75.9419 231° Southwest 460 529 40,000  Level New York Center
Thu 01:12:07 PM 39.5722 -76.2242 230° Southwest 463 533 40,000  Level Washington Center
Thu 01:13:07 PM 39.4903 -76.3472 229° Southwest 463 533 40,000  Level Washington Center
Thu 01:14:08 PM 39.4083 -76.4700 229° Southwest 463 533 40,000  Level Washington Center
Thu 01:15:08 PM 39.3217 -76.6111 232° Southwest 463 533 40,000  Level Washington Center
Thu 01:16:06 PM 39.2353 -76.7225 225° Southwest 455 524 40,000  Level Washington Center
Thu 01:17:06 PM 39.1364 -76.8306 220° Southwest 454 522 40,000  Level Washington Center
Thu 01:18:07 PM 39.0583 -76.9122 219° Southwest 460 529 40,000  Level Washington Center
Thu 01:19:07 PM 38.9508 -77.0250 219° Southwest 460 529 40,000  Level Washington Center
Thu 01:20:08 PM 38.8536 -77.1297 220° Southwest 460 529 40,000  Level Washington Center
Thu 01:21:08 PM 38.7564 -77.2314 219° Southwest 460 529 40,000  Level Washington Center
Thu 01:22:06 PM 38.6589 -77.3331 219° Southwest 460 529 40,000  Level Washington Center
Thu 01:23:07 PM 38.5656 -77.4369 221° Southwest 460 529 40,000  Level Washington Center
Thu 01:24:08 PM 38.4661 -77.5381 219° Southwest 460 529 40,000  Level Washington Center
Thu 01:25:08 PM 38.3728 -77.6389 220° Southwest 454 522 40,000  Level Washington Center
Thu 01:26:08 PM 38.2750 -77.7419 220° Southwest 454 522 40,000  Level Washington Center
Thu 01:27:07 PM 38.1792 -77.8422 219° Southwest 454 522 40,000  Level Washington Center
Thu 01:28:07 PM 38.0792 -77.9447 219° Southwest 454 522 40,000  Level Washington Center
Thu 01:29:08 PM 37.9814 -78.0472 220° Southwest 454 522 40,000  Level Washington Center
Thu 01:30:06 PM 37.8856 -78.1439 219° Southwest 454 522 40,000  Level Washington Center
Thu 01:31:07 PM 37.7808 -78.2561 220° Southwest 449 517 40,000  Level Washington Center
Thu 01:32:07 PM 37.6825 -78.3575 219° Southwest 455 524 40,000  Level Washington Center
Thu 01:33:08 PM 37.5800 -78.4586 218° Southwest 455 524 40,000  Level Washington Center
Thu 01:34:08 PM 37.4794 -78.5594 219° Southwest 455 524 40,000  Level Washington Center
Thu 01:35:09 PM 37.3792 -78.6575 218° Southwest 455 524 40,000  Level Washington Center
Thu 01:36:06 PM 37.2892 -78.7481 219° Southwest 460 529 40,000  Level Washington Center
Thu 01:37:06 PM 37.1883 -78.8508 219° Southwest 465 535 40,000  Level Washington Center
Thu 01:38:07 PM 37.0894 -78.9506 219° Southwest 465 535 40,000  Level Washington Center
Thu 01:39:08 PM 36.9886 -79.0503 218° Southwest 465 535 40,000  Level Washington Center
Thu 01:40:08 PM 36.8900 -79.1472 218° Southwest 465 535 40,000  Level Washington Center
Thu 01:41:08 PM 36.7781 -79.2586 219° Southwest 465 535 40,000  Level Washington Center
Thu 01:42:06 PM 36.6789 -79.3575 219° Southwest 465 535 40,000  Level Washington Center
Thu 01:43:06 PM 36.5797 -79.4589 219° Southwest 465 535 40,000  Level Washington Center
Thu 01:44:07 PM 36.4764 -79.5569 217° Southwest 465 535 40,000  Level Washington Center
Thu 01:47:03 PM 36.1764 -79.8408 217° Southwest 456 525 40,000  Level Atlanta Center
Thu 01:49:03 PM 35.9692 -80.0106 214° Southwest 467 537 40,000  Level Atlanta Center
Thu 01:50:03 PM 35.8481 -80.0731 203° Southwest 474 545 40,000  Level Atlanta Center
Thu 01:51:03 PM 35.7250 -80.1353 202° Southwest 479 551 40,000  Level Atlanta Center
Thu 01:52:03 PM 35.5894 -80.2056 203° Southwest 479 551 40,000  Level Atlanta Center
Thu 01:53:03 PM 35.4642 -80.2675 202° Southwest 485 558 40,000  Level Atlanta Center
Thu 01:54:03 PM 35.3450 -80.3289 203° Southwest 485 558 40,000  Level Atlanta Center
Thu 01:55:03 PM 35.2175 -80.3906 202° Southwest 485 558 40,000  Level Atlanta Center
Thu 01:58:54 PM 34.7506 -80.6236 202° Southwest 497 572 40,000  Level Jacksonville Center
Thu 01:59:54 PM 34.6267 -80.6822 201° Southwest 489 563 40,000  Level Jacksonville Center
Thu 02:00:54 PM 34.4817 -80.7567 203° Southwest 489 563 40,000  Level Jacksonville Center
Thu 02:01:54 PM 34.3597 -80.8175 202° Southwest 481 554 40,000  Level Jacksonville Center
Thu 02:02:54 PM 34.2519 -80.8653 200° South 481 554 40,000  Level Jacksonville Center
Thu 02:03:54 PM 34.1278 -80.9258 202° Southwest 481 554 40,000  Level Jacksonville Center
Thu 02:04:54 PM 33.9994 -80.9889 202° Southwest 486 559 40,000  Level Jacksonville Center
Thu 02:05:54 PM 33.8667 -81.0517 201° Southwest 491 565 40,000  Level Jacksonville Center
Thu 02:06:54 PM 33.7675 -81.1111 206° Southwest 485 558 40,000  Level Jacksonville Center
Thu 02:07:54 PM 33.6394 -81.1986 210° Southwest 485 558 40,000  Level Jacksonville Center
Thu 02:08:54 PM 33.5192 -81.2758 208° Southwest 485 558 40,000  Level Jacksonville Center
Thu 02:09:54 PM 33.4014 -81.3525 209° Southwest 485 558 40,000  Level Jacksonville Center
Thu 02:10:54 PM 33.2708 -81.4292 206° Southwest 485 558 40,000  Level Jacksonville Center
Thu 02:11:54 PM 33.1650 -81.4981 209° Southwest 485 558 40,000  Level Jacksonville Center
Thu 02:12:54 PM 33.0489 -81.5717 208° Southwest 485 558 40,000  Level Jacksonville Center
Thu 02:13:54 PM 32.9203 -81.6331 202° Southwest 485 558 40,000  Level Jacksonville Center
Thu 02:14:54 PM 32.7892 -81.6792 196° South 491 565 40,000  Level Jacksonville Center
Thu 02:15:54 PM 32.6475 -81.7306 197° South 491 565 40,000  Level Jacksonville Center
Thu 02:16:54 PM 32.5289 -81.7714 196° South 497 572 40,000  Level Jacksonville Center
Thu 02:17:54 PM 32.3833 -81.8250 197° South 497 572 40,000  Level Jacksonville Center
Thu 02:18:54 PM 32.2542 -81.8706 197° South 497 572 40,000  Level Jacksonville Center
Thu 02:19:54 PM 32.1211 -81.9164 196° South 497 572 40,000  Level Jacksonville Center
Thu 02:20:54 PM 31.9919 -81.9592 196° South 490 564 40,000  Level Jacksonville Center
Thu 02:21:54 PM 31.8689 -81.9753 186° South 495 570 40,000  Level Jacksonville Center
Thu 02:22:54 PM 31.7208 -81.9914 185° South 495 570 40,000  Level Jacksonville Center
Thu 02:23:54 PM 31.5831 -82.0047 185° South 495 570 40,000  Level Jacksonville Center
Thu 02:24:54 PM 31.4600 -82.0183 185° South 502 578 40,000  Level Jacksonville Center
Thu 02:25:54 PM 31.3222 -82.0292 184° South 502 578 40,000  Level Jacksonville Center
Thu 02:26:54 PM 31.1867 -82.0425 185° South 502 578 40,000  Level Jacksonville Center
Thu 02:27:54 PM 31.0489 -82.0583 186° South 502 578 40,000  Level Jacksonville Center
Thu 02:28:54 PM 30.9089 -82.0669 183° South 497 572 40,000  Level Jacksonville Center
Thu 02:29:54 PM 30.7714 -82.0803 185° South 497 572 40,000  Level Jacksonville Center
Thu 02:30:54 PM 30.6336 -82.0933 185° South 497 572 40,000  Level Jacksonville Center
Thu 02:31:54 PM 30.4853 -82.1019 183° South 502 578 40,000  Level Jacksonville Center
Thu 02:32:54 PM 30.3456 -82.1150 185° South 502 578 40,000  Level Jacksonville Center
Thu 02:33:54 PM 30.2078 -82.1258 184° South 502 578 40,000  Level Jacksonville Center
Thu 02:34:54 PM 30.0700 -82.1078 174° South 505 581 40,000  Level Jacksonville Center
Thu 02:35:54 PM 29.9425 -82.0847 171° South 510 587 40,000  Level Jacksonville Center
Thu 02:36:54 PM 29.7878 -82.0525 170° South 510 587 40,000 -900 Level Jacksonville Center
Thu 02:37:54 PM 29.6519 -82.0275 171° South 504 580 38,200 -1,800 Descending Jacksonville Center
Thu 02:38:54 PM 29.5119 -82.0000 170° South 504 580 36,400 -1,600 Descending Jacksonville Center
Thu 02:39:54 PM 29.3739 -81.9728 170° South 504 580 35,000 -700 Descending Jacksonville Center
Thu 02:40:54 PM 29.2358 -81.9456 170° South 504 580 35,000 -50 Level Jacksonville Center
Thu 02:41:54 PM 29.0978 -81.9136 169° South 504 580 34,900 -900 Descending Jacksonville Center
Thu 02:42:54 PM 28.9558 -81.8864 170° South 504 580 33,200 -1,850 Descending Jacksonville Center
Thu 02:43:54 PM 28.8178 -81.8594 170° South 504 580 31,200 -1,850 Descending Jacksonville Center
Thu 02:44:54 PM 28.6736 -81.8300 170° South 511 588 29,500 -1,265 Descending Jacksonville Center
Thu 02:47:18 PM 28.3508 -81.7489 168° South 501 577 26,900 -1,147 Descending Miami Center
Thu 02:48:18 PM 28.2167 -81.7125 167° South 501 577 25,600 -1,400 Descending Miami Center
Thu 02:49:18 PM 28.0842 -81.6739 166° South 506 582 24,100 -800 Descending Miami Center
Thu 02:50:18 PM 27.9586 -81.6919 187° South 470 541 24,000 -50 Descending Miami Center
Thu 02:51:18 PM 27.8300 -81.7286 194° South 470 541 24,000  Level Miami Center
Thu 02:52:18 PM 27.7014 -81.7653 194° South 475 547 24,000 -1,050 Level Miami Center
Thu 02:53:18 PM 27.5850 -81.7533 175° South 460 529 21,900 -2,150 Descending Miami Center
Thu 02:54:18 PM 27.4739 -81.7042 159° South 445 512 19,700 -2,050 Descending Miami Center
Thu 02:55:18 PM 27.3753 -81.6581 157° South 416 479 17,800 -1,900 Descending Miami Center
Thu 02:56:18 PM 27.2869 -81.6147 156° South 376 433 15,900 -1,600 Descending Miami Center
Thu 02:57:18 PM 27.2108 -81.5811 159° South 331 381 14,600 -1,300 Descending Miami Center
Thu 02:58:18 PM 27.1389 -81.5431 155° Southeast 303 349 13,300 -1,300 Descending Miami Center
Thu 02:59:18 PM 27.0650 -81.5097 158° South 289 333 12,000 -1,100 Descending Miami Center
Thu 03:01:18 PM 26.9253 -81.4414 156° South 266 306 10,000 -1,200 Descending Miami Center
Thu 03:02:18 PM 26.8594 -81.4061 154° Southeast 266 306 8,400 -1,050 Descending Miami Center
Thu 03:03:18 PM 26.7914 -81.3803 161° South 261 300 7,900 -200 Descending Miami Center
Thu 03:04:18 PM 26.7178 -81.3939 189° South 256 295 8,000 50 Climbing Miami Center
Thu 03:05:18 PM 26.6425 -81.3978 183° South 272 313 8,000  Level Miami Center
Thu 03:06:18 PM 26.5756 -81.4022 183° South 266 306 8,000  Level Miami Center
Thu 03:08:00 PM 26.3777 -81.4445 204° Southwest  Level FlightAware Approximate
Thu 03:15:00 PM 26.1500 -81.7667 246° West  Level FlightAware Approximate
Thu 03:16:00 PM 26.1524 -81.7756 246° West  Level Estimated
Thu 03:17:00 PM 26.1524 -81.7756 246° West  Level Estimated
Thu 03:18:00 PM 26.1524 -81.7756 246° West  Level Estimated
Thu 03:19:00 PM 26.1524 -81.7756 246° West  Level Estimated
Thu 03:20:00 PM 26.1524 -81.7756 246° West  Level Estimated
Thu 03:21:00 PM 26.1524 -81.7756 246° West  Level Estimated
Thu 03:22:00 PM 26.1524 -81.7756 246° West  Level Estimated
Thu 03:23:00 PM 26.1524 -81.7756 246° West  Level Estimated
Thu 03:24:00 PM 26.1524 -81.7756 246° West  Level Estimated
Thu 03:25:00 PM 26.1524 -81.7756 246° West  Level Estimated
Thu 03:26:00 PM 26.1524 -81.7756 246° West  Level Estimated
Thu 03:27:00 PM 26.1524 -81.7756 246° West  Level Estimated

Login

Don't have an account? Register now (free) for customized features, flight alerts, and more!